Home > Weather > Nettetal > Past weeks

Flag for Germany Weather for the Past 2 Weeks in Nettetal, North Rhine-Westphalia, Germany

Now
59 °F

Passing clouds.


Feels Like: 58 °F
Forecast: 43 / 65 °F
Wind: 7 mph from Northeast

Location: Monchengladbach Airport

Current Time: May 4, 2016 at 8:17:37 PM

Latest Report: May 4, 2016 at 7:20 PM


Visibility: N/A

Pressure: 30.33 "Hg

Humidity: 34%

Dew Point: 30 °F

Location of NettetalLocation

Historic Weather in Nettetal — Graph

°F

Nettetal Temperature Yesterday

Maximum temperature yesterday: 59 °F (at 2:50 PM)
Minimum temperature yesterday: 48 °F (at 7:50 AM)
Average temperature yesterday: 56 °F

High & Low Weather Summary for the Past Weeks

 TemperatureHumidityPressure
High68 °F (May 2, 3:50 PM)100% (Apr 30, 7:50 AM)30.48 "Hg (Apr 30, 7:50 AM)
Low37 °F (Apr 20, 7:50 AM)28% (Apr 21, 5:20 PM)29.50 "Hg (Apr 26, 12:20 PM)
Average50 °F64%30.05 "Hg
* Reported Apr 19 7:20 PM — May 4 7:20 PM, Nettetal, Weather by CustomWeather, © 2016

Note: Actual official high and low records may vary slightly from our data, if they occured in-between our weather recording intervals... More about our weather records

Advertising

Nettetal Weather History for the Previous 24 Hours

Scroll right to see more
 ConditionsComfort  
Time TempWeatherWind HumidityBarometerVisibility
7:20 PM
Wed, May 4
59 °FPassing clouds.7 mph34%30.33 "HgN/A
6:50 PM59 °FPassing clouds.5 mph36%30.33 "HgN/A
6:20 PM59 °FPassing clouds.6 mph31%30.33 "HgN/A
5:50 PM59 °FPassing clouds.7 mph36%30.33 "HgN/A
5:20 PM59 °FPassing clouds.6 mph36%30.36 "HgN/A
4:20 PM59 °FClear.3 mph39%30.36 "Hg10 mi
3:50 PM59 °FClear.3 mph36%30.36 "Hg10 mi
3:20 PM57 °FClear.5 mph39%30.36 "Hg10 mi
2:50 PM57 °FPassing clouds.7 mph39%30.39 "HgN/A
1:50 PM57 °FClear.6 mph44%30.39 "Hg10 mi
12:50 PM55 °FPassing clouds.5 mph51%30.39 "HgN/A
12:20 PM55 °FPassing clouds.7 mph47%30.42 "HgN/A
11:50 AM54 °FPassing clouds.2 mph47%30.42 "HgN/A
11:20 AM54 °FSunny.5 mph47%30.42 "Hg10 mi
10:50 AM52 °FPassing clouds.6 mph54%30.42 "HgN/A
9:50 AM52 °FPassing clouds.5 mph67%30.42 "HgN/A
9:20 AM50 °FSunny.3 mph67%30.42 "Hg10 mi
8:50 AM48 °FSunny.3 mph76%30.42 "Hg10 mi
8:20 AM48 °FSunny.1 mph76%30.42 "Hg10 mi
7:50 AM45 °FSunny.No wind87%30.42 "Hg10 mi
8:20 PM
Tue, May 3
54 °FClear.10 mph47%30.27 "Hg10 mi
Weather by CustomWeather, © 2016

See weather overviewHow to use our weather pages